Flag for Germany Weather past 2 weeks in Erding, Bavaria, Germany

Now
68 °F

Sunny.


Feels Like: 68 °F
Forecast: 59 / 90 °F
Wind: 9 mph from Northeast

Location: Munich / Franz Josef Strauss Airport

Current Time: Aug 5, 2015 at 9:28:27 AM

Latest Report: Aug 5, 2015 at 8:50 AM


Visibility: 10 mi

Pressure: 30.15 "Hg

Humidity: 78%

Dew point: 61 °F

Location of ErdingLocation

Historic Weather in Erding — Graph

°F

Erding temperature yesterday

Maximum temperature yesterday: 90 °F (at 4:50 PM)
Minimum temperature yesterday: 52 °F (at 5:50 AM)
Average temperature yesterday: 72 °F

Past Weeks' High & Low Weather Summary

 TemperatureHumidityPressure
High93 °F (Jul 22, 2:20 PM)100% (Jul 27, 4:20 AM)30.15 "Hg (Jul 27, 4:20 AM)
Low46 °F (Jul 30, 4:50 AM)25% (Jul 30, 3:50 PM)29.74 "Hg (Jul 24, 10:50 PM)
Average67 °F63%29.97 "Hg
* Reported Jul 21 8:20 AM — Aug 5 8:20 AM, Erding, Weather by CustomWeather, © 2015

Note: Actual official high and low records may vary slightly from our data, if they occured in-between our weather recording intervals... More about our weather records

Advertising

Erding weather history for previous 24 hours

 ConditionsComfort  
Time TempWeatherWind HumidityBarometerVisibility
8:20 AM
Wed, Aug 5
66 °FPassing clouds.7 mph78%30.15 "HgN/A
7:50 AM64 °FPassing clouds.5 mph83%30.15 "HgN/A
7:20 AM63 °FSunny.1 mph88%30.15 "Hg10 mi
6:20 AM55 °FClear.1 mph100%30.12 "Hg10 mi
5:50 AM57 °FClear.1 mph94%30.12 "Hg10 mi
5:20 AM57 °FClear.1 mph94%30.15 "Hg10 mi
4:50 AM59 °FClear.2 mph88%30.12 "Hg10 mi
4:20 AM59 °FClear.1 mph88%30.12 "Hg10 mi
3:50 AM61 °FPassing clouds.3 mph88%30.12 "HgN/A
3:20 AM63 °FPassing clouds.2 mph88%30.12 "HgN/A
2:50 AM63 °FPassing clouds.1 mph88%30.12 "HgN/A
2:20 AM63 °FClear.2 mph88%30.15 "Hg10 mi
1:50 AM63 °FClear.2 mph88%30.12 "Hg10 mi
1:20 AM64 °FClear.1 mph83%30.12 "Hg10 mi
12:20 AM66 °FClear.5 mph73%30.12 "Hg10 mi
11:50 PM
Tue, Aug 4
70 °FClear.3 mph64%30.12 "Hg10 mi
11:20 PM72 °FClear.5 mph61%30.12 "Hg10 mi
10:50 PM72 °FClear.5 mph61%30.09 "Hg10 mi
10:20 PM73 °FClear.5 mph57%30.09 "Hg10 mi
9:50 PM73 °FClear.6 mph57%30.09 "Hg10 mi
9:20 PM73 °FSunny.5 mph53%30.09 "Hg10 mi
8:50 PM75 °FPassing clouds.6 mph54%30.07 "HgN/A
8:20 PM77 °FSunny.12 mph51%30.07 "Hg10 mi
7:50 PM79 °FSunny.12 mph48%30.04 "Hg10 mi
7:20 PM79 °FPassing clouds.15 mph48%30.01 "HgN/A
6:50 PM82 °FBroken clouds.13 mph42%30.01 "HgN/A
6:20 PM82 °FPartly sunny.10 mph40%30.01 "HgN/A
5:50 PM86 °FPartly sunny.18 mph35%29.98 "HgN/A
5:20 PM88 °FScattered clouds.13 mph33%29.98 "HgN/A
4:50 PM90 °FPassing clouds.9 mph27%29.95 "HgN/A
4:20 PM88 °FPassing clouds.12 mph29%29.98 "HgN/A
3:50 PM88 °FPassing clouds.12 mph29%29.98 "HgN/A
3:20 PM88 °FPassing clouds.13 mph29%29.98 "HgN/A
2:50 PM86 °FPassing clouds.8 mph33%29.98 "HgN/A
2:20 PM86 °FPassing clouds.8 mph33%29.98 "HgN/A
1:50 PM88 °FPassing clouds.7 mph31%29.98 "HgN/A
1:20 PM86 °FSunny.3 mph35%29.98 "Hg10 mi
12:50 PM84 °FSunny.5 mph37%29.98 "Hg10 mi
12:20 PM82 °FSunny.3 mph42%29.98 "Hg10 mi
11:50 AM81 °FPassing clouds.5 mph45%29.98 "HgN/A
11:20 AM81 °FSunny.5 mph45%29.98 "Hg10 mi
10:50 AM79 °FSunny.3 mph51%29.98 "Hg10 mi
10:20 AM77 °FSunny.3 mph57%30.01 "Hg10 mi
9:50 AM73 °FSunny.3 mph65%30.01 "Hg10 mi
9:20 AM72 °FSunny.2 mph69%30.01 "Hg10 mi
Weather by CustomWeather, © 2015

See weather overviewHow to use our weather pages